This is the latest recevied weather packets stored in our database for station/object N4PWG. If no packets are shown the sender has not sent any weather packets the latest 10 day(s).
| Time | Temp. | Humidity | Pressure | Rain* | Wind** | Luminosity | Snow |
|---|---|---|---|---|---|---|---|
| 1777989965 | 15° C | 99% | 1026.2 hPa | 4.83 mm | - | 24 W/m² | - |
| 1777989662 | 15° C | 99% | 1026.6 hPa | 6.1 mm | - | 28 W/m² | - |
| 1777989358 | 15° C | 99% | 1026.6 hPa | 6.1 mm | - | 18 W/m² | - |
| 1777989055 | 15° C | 99% | 1026.6 hPa | 6.1 mm | - | 19 W/m² | - |
| 1777988745 | 15.56° C | 99% | 1026.8 hPa | 4.32 mm | - | 22 W/m² | - |
| 1777988443 | 15.56° C | 98% | 1027.2 hPa | 4.32 mm | - | 20 W/m² | - |
| 1777988139 | 15.56° C | 97% | 1026.9 hPa | 7.87 mm | - | 19 W/m² | - |
| 1777987835 | 15.56° C | 97% | 1027.1 hPa | 8.89 mm | - | 12 W/m² | - |
| 1777987532 | 15.56° C | 96% | 1027 hPa | 8.89 mm | - | 11 W/m² | - |
| 1777987230 | 15.56° C | 95% | 1027 hPa | 8.89 mm | - | 6 W/m² | - |
| 1777986926 | 15.56° C | 94% | 1027.2 hPa | 16.76 mm | - | 2 W/m² | - |
| 1777986624 | 16.11° C | 93% | 1027.1 hPa | 13.72 mm | - | 3 W/m² | - |
| 1777986322 | 16.11° C | 91% | 1026.9 hPa | 3.05 mm | - | 1 W/m² | - |
| 1777986020 | 16.67° C | 89% | 1026.6 hPa | 3.05 mm | - | 2 W/m² | - |
| 1777985716 | 16.67° C | 87% | 1026.5 hPa | 1.78 mm | - | 5 W/m² | - |
| 1777985413 | 16.67° C | 86% | 1026.6 hPa | 0 mm | - | 4 W/m² | - |
| 1777985109 | 17.22° C | 83% | 1026.3 hPa | 0 mm | - | 5 W/m² | - |
| 1777984048 | 17.22° C | 80% | 1026.2 hPa | 0 mm | - | 7 W/m² | - |
| 1777983745 | 17.22° C | 80% | 1026.2 hPa | 0 mm | - | 7 W/m² | - |
| 1777983442 | 17.22° C | 79% | 1026.1 hPa | 0 mm | - | 10 W/m² | - |
| 1777983139 | 17.22° C | 80% | 1025.9 hPa | 0 mm | - | 13 W/m² | - |
| 1777982835 | 17.22° C | 80% | 1025.8 hPa | 0 mm | - | 17 W/m² | - |
| 1777982532 | 17.22° C | 80% | 1025.9 hPa | 0 mm | - | 18 W/m² | - |
| 1777982230 | 16.67° C | 80% | 1025.6 hPa | 0 mm | - | 18 W/m² | - |
| 1777981928 | 16.67° C | 81% | 1025.5 hPa | 0 mm | - | 18 W/m² | - |
* Rain latest hour (hover to see other rain measurements)
** Current wind speed in m/s (hover to see current wind gust speed)